Simultaneous Nadir Overpasses (SNOs) Predictions

Prediction of SNOs between GOES-14 and NOAA-20 Satellite Orbit:

Table of predicted SNOs for the next 14.0 days since TLE Epoch: 11/18/2023
Index Date Time (GOES-14) GOES-14 Lat,Lon NOAA-20 Lat,Lon Distance(km) Time Diff (sec)
1 11/19/2023 08:43:10 0.02,-108.63 0.26,-109.79 132.31 80
2 11/20/2023 08:27:06 0.03,-108.63 -0.72,-105.26 384.03 80
3 11/21/2023 20:46:23 -0.00,-108.58 -0.47,-110.57 226.57 80
4 11/22/2023 20:30:20 -0.01,-108.58 0.58,-106.04 290.01 80
5 11/24/2023 08:49:28 -0.01,-108.63 0.61,-111.32 306.36 80
6 11/25/2023 08:33:24 0.01,-108.63 -0.38,-106.78 210.27 80
7 11/26/2023 20:52:42 0.02,-108.59 -0.74,-112.10 400.12 80
8 11/27/2023 20:36:37 0.00,-108.59 0.25,-107.57 116.31 80
9 11/29/2023 08:55:46 -0.02,-108.63 0.93,-112.84 480.53 80
10 11/30/2023 08:39:41 -0.01,-108.63 -0.07,-108.31 35.88 80
